Voltar ao catálogo

GLOBALSTAR M098

AtivoComunicaçõesLEO
NORAD 100325·PAYLOAD·🇺🇸 United States

Lançado Aug 16, 2026 de Cape Canaveral Space Force Station

Loading…

Próximas Passagens (próximas 24 horas)

TLE

AtualizadoSource: Space-Track

Época: Sep 14, 2026, 21:10 UTC

1 A0325U 26185A   26257.88234498  .00000232  00000-0  81207-4 0  9999
2 A0325  51.9954 109.7390 0009907 329.4885  30.5494 14.63733207  4373

Acompanhe GLOBALSTAR M098 em tempo real com AllMySat

Download on the App Store